Terminal Aerodrome Forecast
Issued by NWS Greer, SC

Home | Current Version | Previous Version | Text Only | Print | Product List | Glossary On
Versions: 1 2 3 4 5 6 7 8 9 10 11 12 13 14 15 16 17 18 19 20 21 22 23 24 25 26 27 28 29 30 31 32 33 34 35 36 37 38 39 40 41 42 43
000
FTUS42 KGSP 292320
TAFCLT
TAF
KCLT 292320Z 3000/3024 12005KT P6SM FEW060 BKN170
     FM300800 15003KT P6SM SCT060 BKN100
     FM301700 17006KT P6SM BKN060
     FM302200 16005KT P6SM BKN045=

USA.gov is the U.S. government's official web portal to all federal, state and local government web resources and services.